カタログに戻る

CZ-6A DEB

運用中PO
NORAD 61142·DEBRIS·🇨🇳 China

打ち上げ Aug 6, 2024 から Taiyuan Satellite Launch Center

Loading…

次のパス (今後24時間)

TLE

最新Source: Space-Track

元期: Sep 13, 2026, 22:11 UTC

1 61142U 24140QL  26256.92473647  .00001032  00000-0  22180-3 0  9990
2 61142  88.8354 244.2227 0104932 310.0776  49.1267 14.54441726109331

AllMySatでCZ-6A DEBをリアルタイム追跡

Download on the App Store